Location: Dötzum
(52.0808°N, 9.8063°E)
Time: 04:43:37
(UTC+00:00)

Cosmos 2084 Rocket - Pass Details

Date: 27 May 2022
Orbit: 497 x 678 km, 62.8° (Epoch: 24 June)

Event Time Altitude Azimuth Distance (km) Brightness Sun altitude
Exits shadow 01:56:00 10° 243° (WSW) 1,737 5.3 -8.9°
Reaches altitude 10° 01:56:04 10° 244° (WSW) 1,709 5.3 -8.9°
Maximum altitude 01:59:48 54° 322° (NW) 610 3.6 -8.6°
Drops below altitude 10° 02:03:33 10° 42° (NE) 1,713 7.6 -8.2°
Sets 02:05:46 0° 47° (NE) 2,610 9.1 -8.0°
